TimeMST,TemperatureF,Dew PointF,Humidity,Sea Level PressureIn,VisibilityMPH,Wind Direction,Wind SpeedMPH,Gust SpeedMPH,PrecipitationIn,Events,Conditions,WindDirDegrees,DateUTC
12:15 AM,28.4,24.8,86,29.72,4.0,East,5.8,-,N/A,Snow,Light Snow,90,2013-03-09 07:15:00
12:35 AM,28.4,23.0,80,29.72,10.0,East,5.8,-,N/A,,Overcast,90,2013-03-09 07:35:00
12:55 AM,28.4,21.2,74,29.72,10.0,East,6.9,-,N/A,,Overcast,90,2013-03-09 07:55:00
1:15 AM,28.4,21.2,74,29.71,10.0,East,10.4,-,N/A,,Overcast,90,2013-03-09 08:15:00
1:35 AM,28.4,19.4,69,29.70,10.0,East,11.5,-,N/A,Thunderstorm,Mostly Cloudy,90,2013-03-09 08:35:00
1:55 AM,28.4,19.4,69,29.69,10.0,East,8.1,-,N/A,Thunderstorm,Thunderstorm,100,2013-03-09 08:55:00
2:15 AM,28.4,17.6,64,29.66,10.0,ENE,4.6,-,N/A,,Mostly Cloudy,70,2013-03-09 09:15:00
2:35 AM,26.6,21.2,80,29.66,10.0,East,6.9,-,N/A,,Mostly Cloudy,80,2013-03-09 09:35:00
2:55 AM,26.6,19.4,74,29.65,10.0,Calm,Calm,-,N/A,,Overcast,0,2013-03-09 09:55:00
3:15 AM,26.6,19.4,74,29.64,10.0,East,4.6,-,N/A,,Overcast,90,2013-03-09 10:15:00
3:35 AM,28.4,17.6,64,29.64,10.0,South,6.9,-,N/A,,Overcast,170,2013-03-09 10:35:00
3:55 AM,26.6,23.0,86,29.65,10.0,West,3.5,-,N/A,,Overcast,280,2013-03-09 10:55:00
4:15 AM,26.6,21.2,80,29.66,3.0,SSW,8.1,-,N/A,Snow,Light Snow,210,2013-03-09 11:15:00
4:35 AM,26.6,21.2,80,29.67,3.0,SW,8.1,-,N/A,Snow,Light Snow,220,2013-03-09 11:35:00
4:55 AM,23.0,23.0,100,29.67,1.5,WSW,4.6,-,N/A,Snow,Light Snow,240,2013-03-09 11:55:00
5:15 AM,23.0,21.2,93,29.68,1.0,Calm,Calm,-,N/A,Snow,Snow,0,2013-03-09 12:15:00
5:35 AM,23.0,21.2,93,29.68,7.0,Calm,Calm,-,N/A,,Overcast,0,2013-03-09 12:35:00
5:55 AM,23.0,21.2,93,29.68,10.0,Calm,Calm,-,N/A,,Overcast,0,2013-03-09 12:55:00
6:15 AM,21.2,17.6,86,29.69,10.0,West,6.9,-,N/A,,Overcast,270,2013-03-09 13:15:00
6:35 AM,21.2,15.8,80,29.69,10.0,WSW,5.8,9.2,N/A,,Overcast,240,2013-03-09 13:35:00
7:15 AM,21.2,17.6,86,29.71,10.0,WSW,6.9,-,N/A,,Overcast,240,2013-03-09 14:15:00
7:35 AM,21.2,17.6,86,29.72,10.0,West,5.8,-,N/A,,Overcast,280,2013-03-09 14:35:00
7:55 AM,21.2,17.6,86,29.72,10.0,West,5.8,-,N/A,,Overcast,260,2013-03-09 14:55:00
8:15 AM,21.2,17.6,86,29.73,10.0,SW,5.8,-,N/A,Snow,Light Snow,230,2013-03-09 15:15:00
8:35 AM,21.2,17.6,86,29.74,5.0,Calm,Calm,-,N/A,,Haze,0,2013-03-09 15:35:00
8:55 AM,21.2,19.4,93,29.74,7.0,West,3.5,-,N/A,,Overcast,280,2013-03-09 15:55:00
9:15 AM,23.0,17.6,80,29.74,10.0,Calm,Calm,-,N/A,,Overcast,0,2013-03-09 16:15:00
9:35 AM,23.0,17.6,80,29.75,10.0,Calm,Calm,-,N/A,,Overcast,0,2013-03-09 16:35:00
9:55 AM,24.8,14.0,64,29.76,10.0,Calm,Calm,-,0.01,,Overcast,0,2013-03-09 16:55:00
10:15 AM,26.6,12.2,55,29.76,10.0,Calm,Calm,-,N/A,,Overcast,0,2013-03-09 17:15:00
10:35 AM,26.6,12.2,55,29.76,10.0,West,5.8,-,N/A,,Overcast,280,2013-03-09 17:35:00
10:55 AM,26.6,14.0,59,29.76,10.0,WSW,5.8,-,N/A,,Overcast,250,2013-03-09 17:55:00
11:15 AM,26.6,14.0,59,29.76,10.0,West,6.9,-,N/A,,Overcast,260,2013-03-09 18:15:00
11:35 AM,26.6,17.6,69,29.76,10.0,West,9.2,-,N/A,,Overcast,260,2013-03-09 18:35:00
11:55 AM,26.6,19.4,74,29.76,4.0,WSW,12.7,-,N/A,Snow,Light Snow,250,2013-03-09 18:55:00
12:15 PM,26.6,17.6,69,29.77,7.0,West,8.1,-,N/A,,Overcast,270,2013-03-09 19:15:00
12:35 PM,26.6,15.8,64,29.76,5.0,West,9.2,-,N/A,,Haze,260,2013-03-09 19:35:00
12:55 PM,26.6,19.4,74,29.76,2.0,West,10.4,-,N/A,Snow,Light Snow,260,2013-03-09 19:55:00
1:15 PM,26.6,19.4,74,29.77,1.8,West,11.5,-,N/A,Snow,Light Snow,270,2013-03-09 20:15:00
1:35 PM,24.8,19.4,80,29.77,2.0,West,9.2,-,N/A,Snow,Light Snow,280,2013-03-09 20:35:00
1:55 PM,24.8,19.4,80,29.77,1.2,West,11.5,-,N/A,Snow,Light Snow,260,2013-03-09 20:55:00
2:15 PM,23.0,19.4,86,29.78,0.8,West,11.5,-,N/A,Snow,Light Snow,270,2013-03-09 21:15:00
2:35 PM,23.0,19.4,86,29.79,0.8,West,15.0,18.4,N/A,Snow,Light Snow,260,2013-03-09 21:35:00
2:55 PM,23.0,21.2,93,29.79,1.2,WSW,15.0,-,N/A,Snow,Light Snow,250,2013-03-09 21:55:00
3:15 PM,23.0,21.2,93,29.80,1.8,West,15.0,-,N/A,Snow,Light Snow,260,2013-03-09 22:15:00
3:35 PM,24.8,19.4,80,29.81,10.0,West,13.8,19.6,N/A,,Overcast,260,2013-03-09 22:35:00
3:55 PM,24.8,17.6,74,29.81,7.0,West,11.5,18.4,N/A,Snow,Light Snow,270,2013-03-09 22:55:00
4:15 PM,24.8,19.4,80,29.82,5.0,West,11.5,18.4,N/A,Snow,Light Snow,270,2013-03-09 23:15:00
4:35 PM,24.8,19.4,80,29.83,10.0,West,15.0,19.6,N/A,Snow,Light Snow,260,2013-03-09 23:35:00
4:55 PM,24.8,19.4,80,29.84,7.0,West,12.7,-,N/A,Snow,Light Snow,270,2013-03-09 23:55:00
5:15 PM,23.0,19.4,86,29.84,10.0,West,11.5,-,N/A,Snow,Light Snow,260,2013-03-10 00:15:00
5:35 PM,23.0,19.4,86,29.85,5.0,WSW,16.1,-,N/A,Snow,Light Snow,250,2013-03-10 00:35:00
5:55 PM,23.0,21.2,93,29.85,5.0,West,15.0,-,N/A,Snow,Light Snow,260,2013-03-10 00:55:00
6:15 PM,23.0,21.2,93,29.86,2.0,West,16.1,20.7,N/A,Snow,Light Snow,260,2013-03-10 01:15:00
6:35 PM,23.0,21.2,93,29.88,2.5,WSW,17.3,21.9,N/A,Snow,Light Snow,250,2013-03-10 01:35:00
6:55 PM,23.0,21.2,93,29.89,3.0,West,13.8,20.7,N/A,Snow,Light Snow,260,2013-03-10 01:55:00
7:15 PM,23.0,21.2,93,29.90,3.0,West,13.8,20.7,N/A,Snow,Light Snow,260,2013-03-10 02:15:00
7:35 PM,23.0,23.0,100,29.90,4.0,West,15.0,21.9,N/A,Snow,Light Snow,260,2013-03-10 02:35:00
7:55 PM,23.0,23.0,100,29.91,4.0,West,18.4,24.2,N/A,Snow,Light Snow,260,2013-03-10 02:55:00
8:15 PM,23.0,23.0,100,29.92,5.0,West,17.3,23.0,N/A,Snow,Light Snow,260,2013-03-10 03:15:00
8:35 PM,23.0,23.0,100,29.93,5.0,West,13.8,21.9,N/A,Snow,Light Snow,280,2013-03-10 03:35:00
8:55 PM,23.0,23.0,100,29.93,4.0,West,15.0,24.2,N/A,Snow,Light Snow,260,2013-03-10 03:55:00
9:15 PM,23.0,23.0,100,29.93,7.0,West,5.8,17.3,N/A,Snow,Light Snow,260,2013-03-10 04:15:00
9:35 PM,23.0,23.0,100,29.95,2.5,West,18.4,-,N/A,Snow,Light Snow,260,2013-03-10 04:35:00
9:55 PM,23.0,23.0,100,29.95,2.5,West,12.7,19.6,N/A,Snow,Light Snow,260,2013-03-10 04:55:00
10:15 PM,24.8,21.2,86,29.95,3.0,NW,9.2,17.3,N/A,Snow,Light Snow,310,2013-03-10 05:15:00
10:35 PM,24.8,19.4,80,29.97,2.0,NNW,4.6,-,N/A,Snow,Light Snow,330,2013-03-10 05:35:00
10:55 PM,23.0,19.4,86,29.97,2.5,West,3.5,-,N/A,Snow,Light Snow,280,2013-03-10 05:55:00
11:15 PM,23.0,19.4,86,29.97,4.0,West,16.1,24.2,N/A,Snow,Light Snow,260,2013-03-10 06:15:00
11:35 PM,23.0,19.4,86,29.97,3.0,West,9.2,-,N/A,Snow,Light Snow,270,2013-03-10 06:35:00
11:55 PM,21.2,19.4,93,29.98,4.0,West,17.3,-,N/A,Snow,Light Snow,260,2013-03-10 06:55:00